Probability
1 2 11 39 75 93 94 87 70 50 28 12 8 5 1 1 3 18 36 38 31 39 50 54 60 56 40 27 20 13 5 0 0 0 0 0 0 0 0 0 0 0 0
0 1 10 38 73 90 91 83 68 45 23 12 12 12 9 10 15 32 50 47 36 36 41 49 49 41 29 23 22 19 11 3 1 1 0 0 0 0 0 0 0 0 0
1 2 10 34 62 74 75 73 67 48 24 15 20 26 27 27 31 42 46 37 26 23 26 31 34 32 29 30 34 33 24 12 4 2 0 0 0 0 0 0 0 0 0
4 7 15 28 39 42 44 51 55 44 27 18 24 32 34 31 29 26 21 15 11 11 12 16 24 30 35 41 44 40 33 21 8 2 1 1 1 1 0 0 0 0 0
6 9 15 18 17 14 17 24 29 25 19 16 19 22 22 18 13 8 5 4 5 5 6 9 15 21 27 32 35 32 27 19 9 3 2 1 1 1 0 0 0 0 0
3 5 7 7 4 3 4 7 10 10 8 8 9 10 8 5 3 2 2 1 1 1 3 4 6 8 11 14 17 16 13 9 5 3 1 1 0 0 0 0 0 0 0
0 1 1 1 1 0 0 2 3 3 2 2 2 2 2 1 1 1 1 0 0 1 2 2 2 2 2 3 3 3 3 2 1 1 0 0 0 0 0 0 0 0 0
0 0 0 0 0 0 0 0 0 0 0 0 0 0 0 0 0 0 0 0 0 0 1 1 1 1 0 0 0 0 0 0 0 0 0 0 0 0 0 0 0 0 0
0 0 0 0 0 0 0 0 0 0 0 0 0 0 0 0 0 0 0 0 0 0 0 0 0 0 0 0 0 0 0 0 0 0 0 0 0 0 0 0 0 0 0
0 0 0 0 0 0 0 0 0 0 0 0 0 0 0 0 0 0 0 0 0 0 0 0 0 0 0 0 0 0 0 0 0 0 0 0 0 0 0 0 0 0 0
0 0 0 0 0 0 0 0 0 0 0 0 0 0 0 0 0 0 0 0 0 0 0 0 0 0 0 0 0 0 0 0 0 0 0 0 0 0 0 0 0 0 0
0 0 0 0 0 0 0 0 0 0 0 0 0 0 0 0 0 0 0 0 0 0 0 0 0 0 0 0 0 0 0 0 0 0 0 0 0 0 0 0 0 0 0
0 0 0 0 0 0 0 0 0 0 0 0 0 0 0 0 0 0 0 0 0 0 0 0 0 0 0 0 0 0 0 0 0 0 0 0 0 0 0 0 0 0 0
0 0 0 0 0 0 0 0 0 0 0 0 0 0 0 0 0 0 0 0 0 0 0 0 0 0 0 0 0 0 0 0 0 0 0 0 0 0 0 0 0 0 0
0 0 0 0 0 0 0 0 0 0 0 0 0 0 0 0 0 0 0 0 0 0 0 0 0 0 0 0 0 0 0 0 0 0 0 0 0 0 0 0 0 0 0
0 0 0 0 0 0 0 0 0 0 0 0 0 0 0 0 0 0 0 0 0 0 0 0 0 0 0 0 0 0 0 0 0 0 0 0 0 0 0 0 0 0 0
0 0 0 0 0 0 0 0 0 0 0 0 0 0 0 0 0 0 0 0 0 0 0 0 0 0 0 0 0 0 0 0 0 0 0 0 0 0 0 0 0 0 0
0 0 0 0 0 0 0 0 0 0 0 0 0 0 0 0 0 0 0 0 0 0 0 0 0 0 0 0 0 0 0 0 0 0 0 0 0 0 0 0 0 0 0
0 0 0 0 0 0 0 0 0 0 0 0 0 0 0 0 0 0 0 0 0 0 0 0 0 0 0 0 0 0 0 0 0 0 0 0 0 0 0 0 0 0 0
0 0 0 0 0 0 0 0 0 0 0 0 0 0 0 0 0 0 0 0 0 0 0 0 0 0 0 0 0 0 0 0 0 0 0 0 0 0 0 0 0 0 0
0 0 0 0 0 0 0 0 0 0 0 0 0 0 0 0 0 0 0 0 0 0 0 0 0 0 0 0 0 0 0 0 0 0 0 0 0 0 0 0 0 0 0
0 0 0 0 0 0 0 0 0 0 0 0 0 0 0 0 0 0 0 0 0 0 0 0 0 0 0 0 0 0 0 0 0 0 0 0 0 0 0 0 0 0 0
0 0 0 0 0 0 0 0 0 0 0 0 0 0 0 0 0 0 0 0 0 0 0 0 0 0 0 0 0 0 0 0 0 0 0 0 0 0 0 0 0 0 0
0 0 0 0 0 0 0 0 0 0 0 0 0 0 0 0 0 0 0 0 0 0 0 0 0 0 0 0 0 0 0 0 0 0 0 0 0 0 0 0 0 0 0
0 0 0 0 0 0 0 0 0 0 0 0 0 0 0 0 0 0 0 0 0 0 0 0 0 0 0 0 0 0 0 0 0 0 0 0 0 0 0 0 0 0 0
0 0 0 0 0 0 0 0 0 0 0 0 0 0 0 0 0 0 0 0 0 0 0 0 0 0 0 0 0 0 0 0 0 0 0 0 0 0 0 0 0 0 0
Wind_Speed
5 5 6 5 4 6 8 12 14 13 2 8 5 4 3 4 3 4 5 4 2 2 4 5 3 4 5 5 6 7 9 9 9 10 13 13 13 13 11 10 10 10 11
7 6 4 1 4 4 6 11 10 10 7 7 1 2 2 3 3 3 3 3 4 5 4 5 5 5 6 6 6 7 9 10 11 11 14 15 16 13 11 10 8 11 11
11 10 7 5 5 7 8 11 11 11 6 2 1 4 4 4 3 2 1 4 5 5 5 6 7 7 8 8 8 9 12 13 13 12 13 16 16 14 14 13 12 12 12
11 12 12 11 10 11 10 10 11 11 7 3 3 4 4 5 6 5 5 4 4 6 7 7 8 9 9 10 10 11 12 14 14 13 13 15 16 15 17 15 14 13 13
14 15 14 14 14 13 13 13 13 12 11 10 9 7 7 6 4 6 7 6 6 8 9 9 10 11 11 12 13 14 14 13 15 15 14 14 14 16 17 17 16 14 12
14 15 14 14 14 14 13 13 14 14 13 13 13 12 11 9 9 9 9 9 10 10 11 12 12 13 13 13 14 15 16 15 16 15 15 15 16 15 16 17 18 16 14
12 12 13 13 13 13 12 11 12 12 11 11 11 11 9 8 9 9 10 11 11 11 12 13 13 13 14 15 15 15 16 17 17 17 14 14 15 15 14 17 18 19 15
11 12 12 11 12 11 11 10 10 10 9 9 8 7 7 7 8 10 11 11 10 11 14 14 14 16 17 16 16 15 15 15 15 16 15 15 14 13 10 11 15 18 15
10 10 10 10 11 11 10 10 9 8 8 8 8 8 9 10 10 11 11 10 11 11 13 15 16 16 16 15 13 11 13 13 13 12 14 13 11 11 10 9 11 12 12
9 9 9 10 9 9 8 8 8 8 8 9 9 9 10 11 12 12 12 12 12 13 14 14 14 14 13 12 11 10 11 12 11 9 11 11 9 8 8 9 9 10 11
8 8 8 8 8 7 7 7 8 8 9 10 11 12 12 13 13 13 12 12 12 12 12 11 11 12 12 12 11 10 11 11 11 11 11 12 12 9 8 9 9 9 9
7 7 7 7 6 7 7 8 8 9 11 12 12 13 13 14 13 13 12 12 12 12 11 12 11 11 10 10 11 9 11 12 13 13 12 13 11 10 10 9 9 9 9
5 6 6 7 7 7 8 8 9 10 12 13 14 14 14 14 14 14 14 13 11 10 12 12 13 13 12 10 9 9 11 11 12 12 12 12 12 11 10 10 9 9 8
5 6 7 7 7 7 8 9 10 11 13 14 13 13 13 13 13 13 12 12 11 11 13 13 12 12 12 10 11 12 14 14 14 14 9 11 12 12 13 11 10 9 9
4 6 8 7 7 8 9 10 11 11 11 11 11 10 9 10 11 12 12 11 11 11 12 12 12 12 10 10 14 15 16 16 14 11 8 11 15 20 17 14 10 9 8
5 7 8 7 8 10 11 11 9 8 7 7 7 8 10 10 11 12 12 10 10 11 11 11 12 11 8 15 20 18 17 16 15 10 9 12 15 17 21 23 21 17 12
8 8 7 8 9 9 10 9 8 8 8 9 10 9 10 12 12 10 10 10 11 12 12 12 12 12 10 14 19 23 17 14 12 10 10 10 11 16 15 19 21 18 17
7 6 6 7 8 8 8 8 7 8 9 8 8 10 10 10 10 10 9 10 10 11 11 11 10 9 9 14 19 24 16 11 10 8 10 11 12 14 17 15 11 9 8
5 6 7 7 7 7 6 7 7 8 9 10 10 9 8 8 9 9 10 10 10 11 12 12 11 12 11 14 19 20 13 12 11 8 10 12 13 17 20 13 9 2 5
5 6 6 6 5 5 6 6 7 8 10 10 8 6 6 7 8 9 9 10 11 10 11 11 11 12 13 14 18 20 12 12 11 9 10 15 18 18 17 12 10 7 5
5 6 6 4 3 5 5 6 7 9 8 6 5 5 6 7 8 10 9 9 10 10 10 10 11 12 14 14 17 19 14 13 12 10 9 11 20 16 14 12 10 10 8
5 5 4 2 1 4 5 6 6 6 5 4 5 6 6 7 8 10 9 9 10 10 10 10 10 10 11 14 16 18 17 15 12 9 8 12 18 13 11 10 12 13 9
5 3 2 1 1 2 5 6 7 6 6 7 7 7 7 8 9 10 9 8 10 11 11 11 9 10 11 12 15 16 17 15 14 10 14 17 15 12 7 10 13 11 7
4 2 3 3 2 5 6 7 8 8 8 9 8 8 7 5 8 7 8 9 9 11 12 13 12 11 12 13 15 14 13 15 13 12 13 15 12 12 9 6 8 7 8
4 3 2 4 6 6 6 6 6 7 8 8 7 7 7 7 8 8 6 6 7 7 9 11 13 12 12 14 16 14 13 13 14 11 8 9 9 9 8 6 7 7 8
4 2 3 5 6 6 6 6 6 7 8 9 9 7 7 8 8 9 6 3 4 5 2 5 10 11 10 13 16 17 15 16 17 8 8 8 9 8 9 7 6 7 8
Wind_Direction
6 352 298 263 216 194 152 135 129 119 167 252 184 173 142 131 143 140 150 163 179 253 280 289 280 287 303 318 308 300 299 297 300 297 293 291 288 275 269 274 272 279 274
27 21 344 290 228 151 133 137 148 135 182 262 357 71 82 108 112 119 98 37 2 338 324 339 328 342 320 301 297 305 299 295 296 297 300 295 291 284 280 280 273 264 272
38 48 50 61 72 96 118 121 127 130 142 77 223 134 155 154 165 122 39 19 343 340 353 348 338 331 312 310 315 300 297 296 297 290 287 294 292 303 293 285 276 276 273
55 59 66 74 82 91 98 102 110 115 112 114 97 62 39 30 24 353 6 335 347 345 343 340 335 325 315 306 298 297 299 290 288 289 283 281 287 287 288 280 276 272 270
66 67 70 76 82 86 88 86 84 78 71 64 53 49 41 31 12 4 342 328 340 331 330 329 326 315 304 301 297 293 289 287 286 287 289 286 279 273 275 280 277 271 269
78 79 78 75 74 76 78 75 71 65 60 57 52 47 39 20 5 355 336 342 331 323 323 327 319 309 303 301 300 296 291 288 287 286 286 283 280 280 278 278 277 275 271
86 76 71 70 67 66 68 72 72 69 63 58 51 41 24 7 351 348 344 331 322 323 326 325 313 308 306 302 297 293 288 283 279 279 280 280 278 282 285 286 286 286 287
84 75 69 70 71 68 65 67 67 63 55 47 37 28 5 353 345 348 332 319 320 319 316 310 307 304 299 294 290 286 285 288 289 288 283 279 281 283 278 277 280 284 287
84 77 72 67 66 67 62 57 55 48 33 21 7 359 354 345 336 328 316 313 313 310 310 309 304 301 299 297 297 297 297 297 292 287 286 286 283 280 279 270 263 266 271
89 75 66 60 56 54 55 45 32 19 7 356 350 344 338 333 328 320 313 313 313 313 313 312 315 317 318 317 308 297 290 283 281 283 286 287 285 281 275 268 261 254 257
85 66 56 53 46 32 26 18 8 358 353 346 342 336 332 328 321 314 314 317 321 323 329 329 320 316 311 305 298 294 299 303 299 294 290 287 285 279 272 265 259 256 251
64 58 45 30 17 14 11 3 358 351 345 338 331 327 324 321 318 320 327 332 330 331 320 308 327 328 314 311 310 309 307 304 298 296 292 284 281 274 269 263 260 258 253
58 43 22 14 15 11 4 358 352 344 334 329 327 327 330 335 335 338 337 325 314 308 306 320 320 312 308 301 300 302 298 289 284 284 290 298 292 280 275 267 256 251 250
51 24 11 20 21 11 360 351 343 341 339 338 339 349 355 346 336 327 311 304 305 307 313 314 314 317 318 331 331 310 291 287 288 289 288 291 293 283 278 276 266 249 236
32 25 21 21 10 0 352 348 348 356 356 353 355 356 340 324 313 313 315 318 319 322 322 330 336 339 342 3 341 323 312 308 302 302 311 294 293 295 298 296 284 264 235
16 23 26 8 2 357 350 345 358 358 350 341 342 343 333 323 322 326 334 338 349 350 347 348 345 341 352 4 342 331 316 306 308 314 318 309 305 306 305 300 289 274 250
14 24 7 1 1 352 340 346 351 340 343 355 352 346 332 332 337 341 356 1 357 354 349 349 354 346 6 5 343 331 312 301 303 329 329 314 316 312 307 300 286 267 247
20 12 360 359 356 351 350 346 344 339 335 341 342 338 348 351 2 7 1 353 348 351 349 353 357 350 21 14 353 334 319 319 337 355 331 324 321 319 321 309 288 247 217
29 14 8 350 357 354 347 337 352 326 331 350 356 355 357 359 8 6 1 354 345 356 355 355 1 359 4 11 356 342 334 346 341 346 341 337 328 328 332 332 329 249 155
32 15 356 347 1 353 346 350 339 356 6 10 9 359 357 359 360 355 352 350 346 358 354 358 11 7 356 1 355 346 342 345 333 344 347 340 333 332 345 356 1 25 92
33 16 356 4 351 352 354 351 357 19 16 24 21 3 357 348 354 347 349 347 346 350 349 6 10 0 353 355 353 344 344 347 337 349 342 334 331 339 353 10 23 26 64
38 25 5 10 343 349 345 343 9 3 354 360 349 345 345 345 350 340 342 347 352 345 351 9 9 350 351 351 352 340 337 345 340 355 343 332 333 351 13 25 32 31 46
47 32 31 80 106 334 320 323 330 324 321 323 332 335 337 349 345 351 354 360 2 352 360 359 10 354 353 352 350 344 339 351 349 359 351 343 344 356 28 42 42 39 44
80 93 117 94 7 328 316 309 308 311 307 316 330 331 327 340 343 4 3 3 12 359 1 355 3 360 356 360 351 349 349 352 354 355 352 351 354 6 11 52 68 64 59
110 114 53 356 334 331 327 333 341 337 335 329 329 342 345 355 352 4 15 9 39 20 9 8 2 2 358 356 350 350 353 351 343 348 359 358 3 4 360 37 75 78 79
127 93 3 333 341 344 355 10 8 2 1 360 8 17 359 4 5 359 18 88 117 122 82 58 27 7 4 346 350 353 347 349 339 359 14 2 2 4 1 13 63 80 88